Weather History for LEIB - December, 2013

Change the Weather History Date:

Monday, December 30, 2013

  Actual Average Record
Temperature  
Mean Temperature 50 °F -  
Max Temperature 62 °F 57 °F 64 °F (2001)
Min Temperature 39 °F 45 °F 36 °F (2014)
Degree Days  
Heating Degree Days 14    
Moisture  
Dew Point 41 °F    
Average Humidity 67    
Maximum Humidity 93    
Minimum Humidity 40    
Precipitation  
Precipitation 0.00 in 0.05 in - ()
Sea Level Pressure  
Sea Level Pressure 30.35 in    
Wind  
Wind Speed 4 mph ()    
Max Wind Speed 14 mph    
Max Gust Speed -    
Visibility 7.9 miles    
Events      
Averages and records for this station are not official NWS values.
T = Trace of Precipitation, MM = Missing Value Source: Averaged Metar Reports

Daily Weather History Graph

Daily Weather History Graph

Search for Another Location

Airport or City:

Trip Planner

Search our weather history database for the weather conditions in past years. The results will help you decide how hot, cold, wet, or windy it might be!

Date:

Astronomy

Dec. 30, 2013 Rise Set
Actual Time 8:12 AM CET 5:41 PM CET
Civil Twilight 7:42 AM CET 6:11 PM CET
Nautical Twilight 7:09 AM CET 6:44 PM CET
Astronomical Twilight 6:36 AM CET 7:17 PM CET
Moon 5:46 AM CET (12/30) 3:59 PM CET (12/30)
Length of Visible Light 10h 28m
Length of Day
9h 28m
Waning Crescent, 6% of the Moon is Illuminated
Dec 30
Waning Crescent
Jan 1
New
Jan 8
First Quarter
Jan 16
Full
Jan 24
Last Quarter

Hourly Weather History & Observations

Time (CET) Temp. Dew Point Humidity Pressure Visibility Wind Dir Wind Speed Gust Speed Precip Events Conditions
12:00 AM 43 °F 38 °F 75% 30.42 in - Calm Calm - -  
12:00 AM 44.6 °F 39.2 °F 81% 30.39 in - Variable 1.2 mph - N/A   Clear
1:00 AM 43 °F 38 °F 74% 30.40 in 12 mi WNW 3.5 mph - -  
2:00 AM 42 °F 37 °F 75% 30.39 in - Calm Calm - -  
3:00 AM 41 °F 37 °F 82% 30.39 in - Calm Calm - -  
4:00 AM 42 °F 37 °F 78% 30.38 in 12 mi North 3.5 mph - -  
5:00 AM 41 °F 37 °F 81% 30.38 in - NNW 1.2 mph - -  
5:30 AM 42.8 °F 37.4 °F 81% 30.36 in 6.2 mi Calm Calm - N/A   Partly Cloudy
6:00 AM 41 °F 37 °F 79% 30.39 in - NNW 2.3 mph - -  
6:00 AM 42.8 °F 37.4 °F 81% 30.36 in 6.2 mi Variable 1.2 mph - N/A   Partly Cloudy
6:30 AM 42.8 °F 37.4 °F 81% 30.36 in - Calm Calm - N/A   Clear
7:00 AM 40 °F 35 °F 76% 30.39 in - Calm Calm - -  
7:00 AM 41.0 °F 35.6 °F 81% 30.36 in - Calm Calm - N/A   Clear
7:30 AM 41.0 °F 37.4 °F 87% 30.39 in - Calm Calm - N/A   Clear
8:00 AM 41 °F 38 °F 85% 30.40 in - Calm Calm - -  
8:00 AM 42.8 °F 39.2 °F 87% 30.39 in - Calm Calm - N/A   Clear
8:30 AM 41.0 °F 39.2 °F 93% 30.39 in - Calm Calm - N/A   Clear
9:00 AM 45 °F 39 °F 74% 30.41 in - Calm Calm - -  
9:00 AM 42.8 °F 39.2 °F 87% 30.39 in - Calm Calm - N/A   Clear
9:30 AM 44.6 °F 41.0 °F 87% 30.39 in - Calm Calm - N/A   Clear
10:00 AM 55 °F 44 °F 57% 30.42 in 11 mi Calm Calm - -   Scattered Clouds
10:00 AM 48.2 °F 44.6 °F 87% 30.42 in 6.2 mi Calm Calm - N/A   Partly Cloudy
10:30 AM 53.6 °F 46.4 °F 77% 30.42 in 6.2 mi Calm Calm - N/A   Partly Cloudy
11:00 AM 60 °F 46 °F 49% 30.42 in - WSW 2.3 mph - -  
11:00 AM 55.4 °F 44.6 °F 67% 30.39 in 6.2 mi West 3.5 mph - N/A   Partly Cloudy
11:30 AM 55.4 °F 44.6 °F 67% 30.39 in 6.2 mi West 3.5 mph - N/A   Partly Cloudy
12:00 PM 61 °F 45 °F 45% 30.40 in - SSW 3.5 mph - -  
12:00 PM 57.2 °F 46.4 °F 67% 30.39 in 6.2 mi Variable 2.3 mph - N/A   Partly Cloudy
12:30 PM 57.2 °F 44.6 °F 63% 30.39 in 6.2 mi WSW 8.1 mph - N/A   Partly Cloudy
1:00 PM 61 °F 43 °F 40% 30.38 in 12 mi SSW 9.2 mph - -   Scattered Clouds
1:00 PM 57.2 °F 42.8 °F 59% 30.36 in 6.2 mi SSW 8.1 mph - N/A   Partly Cloudy
1:30 PM 57.2 °F 42.8 °F 59% 30.33 in 6.2 mi WSW 9.2 mph - N/A   Partly Cloudy
2:00 PM 60 °F 43 °F 42% 30.35 in - SW 9.2 mph - -  
2:00 PM 57.2 °F 41.0 °F 55% 30.33 in 6.2 mi SW 9.2 mph - N/A   Partly Cloudy
2:30 PM 57.2 °F 42.8 °F 59% 30.30 in 6.2 mi SW 8.1 mph - N/A   Partly Cloudy
3:00 PM 60 °F 44 °F 44% 30.32 in - SW 9.2 mph - -  
3:00 PM 57.2 °F 44.6 °F 63% 30.30 in 6.2 mi SW 9.2 mph - N/A   Partly Cloudy
3:30 PM 57.2 °F 44.6 °F 63% 30.30 in - SW 8.1 mph - N/A   Clear
4:00 PM 59 °F 44 °F 46% 30.32 in 12 mi SW 9.2 mph - -   Clear
4:00 PM 55.4 °F 42.8 °F 63% 30.30 in - SW 9.2 mph - N/A   Clear
4:30 PM 55.4 °F 42.8 °F 63% 30.30 in - SW 8.1 mph - N/A   Clear
5:00 PM 54 °F 41 °F 52% 30.31 in - SW 10.4 mph - -  
5:00 PM 53.6 °F 41.0 °F 62% 30.30 in - SW 10.4 mph - N/A   Clear
5:30 PM 53.6 °F 42.8 °F 67% 30.30 in - SSW 11.5 mph - N/A   Clear
6:00 PM 53 °F 39 °F 49% 30.31 in - SW 11.5 mph - -  
6:00 PM 53.6 °F 39.2 °F 58% 30.30 in - SW 11.5 mph - N/A   Clear
6:30 PM 53.6 °F 41.0 °F 62% 30.30 in - SW 11.5 mph - N/A   Clear
7:00 PM 53 °F 41 °F 54% 30.31 in 11 mi SW 13.8 mph - -   Clear
7:00 PM 53.6 °F 41.0 °F 62% 30.30 in - SW 11.5 mph - N/A   Clear
7:30 PM 53.6 °F 41.0 °F 62% 30.30 in - SW 11.5 mph - N/A   Clear
8:00 PM 53 °F 42 °F 57% 30.31 in - SW 12.7 mph - -  
8:00 PM 53.6 °F 42.8 °F 67% 30.30 in - SW 11.5 mph - N/A   Clear
8:30 PM 53.6 °F 42.8 °F 67% 30.30 in - SW 10.4 mph - N/A   Clear
9:00 PM 52 °F 43 °F 61% 30.32 in - WSW 10.4 mph - -  
9:00 PM 51.8 °F 42.8 °F 71% 30.30 in - WSW 10.4 mph - N/A   Clear
9:30 PM 53.6 °F 44.6 °F 72% 30.30 in - SW 11.5 mph - N/A   Clear
10:00 PM 53 °F 43 °F 61% 30.31 in 10 mi WSW 11.5 mph - -   Clear
10:00 PM 55.4 °F 42.8 °F 63% 30.30 in - SW 11.5 mph - N/A   Clear
10:30 PM 53.6 °F 42.8 °F 67% 30.30 in - SW 11.5 mph - N/A   Clear
11:00 PM 53 °F 44 °F 64% 30.31 in - WSW 12.7 mph - -  
11:00 PM 53.6 °F 44.6 °F 72% 30.30 in - WSW 12.7 mph - N/A   Clear
11:30 PM 53.6 °F 44.6 °F 72% 30.27 in 6.2 mi WSW 12.7 mph - N/A   Partly Cloudy